Lapse_Rate
5.9 6.0 5.9 5.8 5.9 6.0 6.1 6.1 6.1 6.1 6.2 6.3 6.4 6.5 6.5 6.6 6.6 6.7 6.8 6.8 6.7 6.9 6.9 7.1 7.4 7.5 8.1 8.2 8.2 8.1 7.9 8.1 8.2 8.4 8.5 8.0 8.2 8.5 8.8 9.3 9.3 9.1 9.2 9.4 8.6 8.0 8.5
5.6 6.0 5.9 5.8 5.8 6.1 6.1 6.1 6.1 6.1 6.1 6.3 6.4 6.6 6.6 6.6 6.6 6.7 6.8 6.7 6.9 6.9 6.8 7.1 7.4 7.6 8.1 8.0 7.7 7.8 7.9 8.1 8.4 8.5 8.4 8.1 8.4 8.6 9.1 9.5 9.6 9.2 9.1 9.0 8.5 8.1 8.3
5.7 5.8 5.9 6.0 5.8 6.0 6.1 6.0 6.1 6.1 6.0 6.1 6.3 6.5 6.7 6.6 6.5 6.6 6.8 6.7 6.9 6.8 6.8 7.1 7.4 7.9 8.2 7.9 7.6 7.6 7.9 8.1 8.2 8.3 8.0 8.1 8.3 8.4 8.7 8.8 9.3 9.1 9.2 8.9 8.6 8.5 8.5
5.9 5.8 5.9 6.0 6.0 6.1 6.0 6.1 6.0 6.0 6.0 6.1 6.2 6.4 6.6 6.6 6.5 6.6 6.7 6.6 6.8 6.8 6.8 7.0 7.5 7.9 8.2 8.0 7.8 7.9 7.7 7.8 8.2 7.8 7.9 8.0 7.9 7.9 8.1 8.3 8.8 8.7 9.1 9.1 8.7 9.1 8.3
5.9 5.9 6.1 6.1 6.1 6.2 6.1 6.1 5.9 5.9 5.9 5.9 6.1 6.4 6.4 6.4 6.5 6.5 6.7 6.7 6.7 6.8 6.7 7.1 7.6 7.9 7.7 7.7 8.0 8.1 7.9 8.0 8.1 8.3 8.2 7.8 8.1 8.0 8.2 8.3 8.8 9.2 8.9 9.5 9.0 9.2 9.1
5.9 6.0 5.9 6.1 6.3 6.3 6.3 6.2 6.2 5.9 5.9 5.7 6.0 6.3 6.3 6.4 6.5 6.5 6.7 6.6 6.6 6.6 6.8 7.2 7.7 7.8 8.1 8.1 8.1 8.3 8.2 8.1 8.3 8.3 8.3 8.4 8.4 8.5 8.5 8.7 8.7 8.4 9.1 9.0 9.5 9.2 9.1
5.9 5.9 6.1 6.2 6.3 6.4 6.4 6.4 6.4 6.0 6.0 5.8 5.8 6.1 6.2 6.3 6.5 6.6 6.6 6.5 6.2 6.2 6.9 7.2 7.0 7.9 8.0 8.3 8.2 8.2 8.3 8.2 8.2 8.4 8.3 8.5 8.5 9.0 9.1 8.7 8.3 8.9 8.9 9.4 9.6 9.3 9.2
6.1 6.2 6.2 6.1 6.2 6.4 6.5 6.4 6.4 6.2 5.9 5.9 5.7 6.1 6.2 6.3 6.4 6.5 6.7 6.3 5.5 6.2 6.8 7.2 7.6 7.9 7.9 7.9 8.1 8.3 8.4 8.3 8.5 8.9 8.3 8.9 9.1 7.6 8.5 8.5 8.6 8.9 9.3 8.9 9.6 9.0 9.1
6.1 6.1 6.2 6.2 6.2 6.1 6.4 6.9 6.6 6.3 6.0 5.9 5.8 6.0 6.2 6.3 6.3 6.5 6.6 6.3 6.5 6.4 6.9 7.2 7.7 8.0 8.1 8.0 8.2 8.5 8.5 8.6 8.9 8.3 8.3 7.4 8.3 8.3 8.3 8.8 8.8 9.2 9.5 9.0 9.4 9.2 9.2
6.1 6.1 6.3 6.3 6.4 6.4 6.2 6.4 6.5 6.5 6.1 5.9 5.7 5.9 6.3 6.2 6.1 6.5 6.3 6.0 6.3 6.4 6.5 7.5 7.6 7.9 7.8 8.1 8.4 8.7 8.8 9.0 8.5 8.1 8.0 7.6 8.1 8.0 8.5 9.0 9.2 9.4 8.6 9.2 9.6 9.3 9.2
6.4 6.5 6.5 6.5 6.4 6.6 6.5 6.3 6.9 6.5 6.3 5.9 5.6 5.8 6.2 6.1 6.4 6.0 5.5 6.0 6.4 6.5 7.2 8.0 7.8 8.1 8.3 8.3 8.7 8.5 8.7 8.8 9.0 8.8 8.7 7.5 8.0 8.5 8.6 8.6 8.7 9.1 9.2 9.1 9.5 9.5 9.0
6.6 6.6 6.6 6.7 6.5 6.5 6.6 6.5 6.7 7.0 6.6 6.2 5.8 5.8 6.1 6.3 6.4 5.9 6.8 6.2 6.3 6.3 7.2 8.1 8.1 8.3 8.6 8.5 8.8 9.0 8.5 8.5 8.7 8.6 8.8 8.4 8.1 7.6 8.1 8.6 8.8 9.0 9.0 9.0 9.2 9.4 7.9
6.5 6.5 6.7 6.6 6.7 6.6 6.6 6.5 6.5 6.7 6.3 6.4 6.2 6.4 6.5 6.1 6.0 5.7 6.1 6.0 6.0 6.6 8.2 8.6 8.4 8.3 8.5 8.7 8.8 8.8 8.6 8.6 8.7 8.9 8.8 8.7 9.0 8.8 9.0 8.8 8.9 9.0 9.4 9.3 7.5 7.4 8.6
6.3 6.6 6.6 6.6 6.6 6.7 6.7 6.7 6.5 6.9 6.4 6.0 5.5 5.8 6.0 6.1 5.9 6.2 5.8 6.0 6.2 7.2 7.9 8.8 8.4 8.5 8.6 8.9 8.6 8.7 8.8 8.7 8.7 9.0 9.0 9.2 8.9 9.1 8.9 9.0 8.5 8.7 9.2 9.3 7.9 6.2 8.6
4.7 5.6 6.3 6.3 6.6 6.8 6.8 6.8 6.8 7.0 6.6 5.8 5.4 5.7 6.0 6.1 6.2 6.1 5.8 5.5 6.1 7.7 8.3 9.1 8.7 8.8 8.8 9.1 8.9 8.8 8.7 8.9 8.9 8.9 9.4 8.6 7.9 8.1 8.9 9.0 8.8 9.3 9.2 9.2 8.9 8.7 8.5
2.2 3.3 4.1 5.3 6.2 6.6 6.7 6.9 6.9 7.1 6.5 5.3 5.4 5.5 6.2 6.1 6.2 5.8 5.7 5.5 6.4 7.7 8.4 9.1 8.9 8.9 9.2 9.2 8.8 8.8 8.8 8.8 9.2 9.3 9.3 8.3 7.7 7.8 8.6 8.8 8.6 8.8 8.7 8.8 8.9 8.5 8.2
2.0 2.1 2.1 2.9 4.5 5.9 6.3 6.7 6.8 6.9 6.3 5.3 5.6 5.4 6.3 6.1 5.8 5.4 5.0 5.4 6.6 7.6 8.2 8.5 8.8 9.3 9.4 9.5 9.1 9.3 9.2 9.5 9.1 8.7 8.9 8.6 8.0 7.9 8.3 8.5 8.9 8.6 8.5 8.7 9.0 9.3 8.4
2.7 2.6 2.4 2.5 2.5 4.1 5.1 6.1 6.5 6.3 5.8 5.7 5.5 5.1 6.5 5.8 5.4 5.2 4.9 5.8 6.7 7.7 7.7 8.1 8.5 9.4 9.0 9.4 9.2 9.3 9.1 9.1 8.8 8.7 8.5 8.8 8.7 9.2 8.7 8.7 8.6 8.6 8.7 8.9 8.4 8.6 8.3
4.3 3.3 2.6 2.5 2.9 2.7 2.9 4.6 5.7 5.5 5.3 5.4 5.3 5.3 6.1 6.0 5.1 4.7 5.3 5.9 6.6 7.2 7.8 8.1 8.2 8.4 8.7 8.6 9.2 9.0 9.5 8.7 8.3 8.4 8.5 8.3 8.4 8.7 8.8 8.9 8.4 8.5 8.7 8.7 8.8 8.2 8.1
5.0 4.3 3.4 2.6 2.8 3.1 3.0 3.0 3.9 4.7 5.0 5.2 5.5 5.2 5.9 5.7 5.3 4.9 6.0 6.2 6.8 7.2 7.9 8.2 8.2 8.5 8.4 8.5 8.5 8.6 8.8 8.2 8.1 8.1 8.2 8.2 8.3 8.6 8.6 9.2 8.9 8.8 8.5 8.6 8.6 7.9 7.9
5.1 4.5 4.2 3.8 3.6 3.2 3.4 3.5 3.5 4.4 5.5 4.9 4.8 5.4 5.7 5.1 5.0 4.9 6.2 6.7 7.0 7.3 7.6 8.1 8.3 8.4 8.2 8.4 8.4 8.2 8.4 7.9 8.0 8.0 8.0 8.0 8.0 8.4 8.6 8.9 8.5 8.8 8.9 8.9 8.7 8.4 8.1
5.2 5.0 4.9 4.7 4.5 4.3 3.5 3.6 3.9 5.1 6.0 4.8 4.4 5.1 5.4 5.4 5.2 5.5 6.3 6.4 7.1 7.6 7.8 7.9 8.4 8.3 8.2 8.3 8.3 8.2 8.2 7.7 7.8 7.8 7.8 7.9 7.7 8.0 7.8 8.1 8.1 8.1 8.1 8.3 8.3 8.4 8.4
5.6 5.4 5.5 5.5 5.5 5.3 4.4 3.8 4.2 5.3 6.3 4.5 4.5 5.3 5.6 5.7 5.7 6.1 6.2 6.7 7.1 7.7 7.9 8.2 8.1 8.3 8.4 8.6 7.9 7.6 7.9 7.6 7.8 7.7 7.7 7.4 7.7 7.3 7.4 7.6 7.5 7.5 7.9 8.2 8.0 8.2 8.3
6.2 6.1 6.1 6.7 6.4 6.1 5.6 4.6 4.3 5.0 5.8 4.5 4.3 5.8 5.5 5.8 5.8 5.8 6.6 7.1 7.3 7.7 8.7 8.3 8.3 8.5 8.2 8.0 7.9 7.9 7.9 7.9 7.8 7.6 7.5 7.3 7.5 7.2 7.2 7.3 6.8 7.9 7.9 8.2 8.0 8.1 8.1
6.5 6.8 7.5 7.5 7.6 6.4 6.0 5.2 4.8 5.0 5.4 4.3 5.7 6.1 6.0 5.5 6.7 7.0 7.0 7.2 7.6 8.2 7.1 8.2 8.1 8.1 8.0 8.0 7.8 7.7 7.7 7.7 7.6 7.7 7.7 7.4 7.1 7.1 7.0 7.0 7.6 7.7 7.8 7.7 7.8 7.9 7.4
7.1 7.5 7.5 7.6 7.6 7.0 5.8 6.0 5.5 5.3 5.2 5.9 6.6 6.1 6.0 6.3 6.2 6.8 7.3 7.6 7.9 8.0 7.0 7.7 8.0 7.8 7.9 7.5 7.4 7.3 7.4 7.6 7.5 6.9 7.2 7.4 7.0 7.0 6.9 6.9 6.6 7.4 7.6 7.6 7.6 7.3 6.4
7.8 7.6 7.5 7.6 7.6 7.2 5.6 6.1 5.8 5.9 5.8 6.6 6.6 6.7 6.1 6.2 7.0 7.4 7.4 7.5 7.9 7.8 5.8 7.5 7.8 7.8 7.6 7.7 7.4 7.2 7.4 7.7 7.4 7.1 6.9 6.9 6.9 6.8 6.7 6.7 6.9 7.0 7.0 7.2 6.9 6.4 6.1
7.8 7.8 7.5 7.6 7.4 6.6 5.5 6.6 6.3 6.1 6.3 6.5 6.7 7.1 6.6 6.5 6.9 7.4 7.9 8.0 7.9 7.3 6.0 7.4 7.5 7.4 7.3 7.5 7.2 7.0 7.2 7.4 7.5 7.3 7.2 7.2 6.8 6.7 6.3 6.2 6.1 6.6 6.6 6.4 6.2 6.2 6.3
7.7 7.6 7.5 7.6 7.4 6.2 5.9 6.4 6.1 6.0 6.5 7.1 6.5 6.7 6.5 6.7 7.1 7.3 7.3 7.5 7.4 7.3 7.1 7.5 7.6 7.8 7.6 7.4 7.1 7.0 6.9 7.1 7.2 7.0 7.2 7.0 6.9 6.7 6.8 6.8 6.6 6.2 6.3 5.8 5.7 6.2 6.2
Wind_Speed
14 12 14 15 18 19 18 17 17 16 15 14 13 13 13 13 13 15 14 14 15 14 13 11 11 12 10 7 9 5 11 9 12 12 12 11 10 10 14 15 10 14 16 8 10 7 5
15 16 16 17 17 19 19 18 17 16 16 15 14 14 13 13 13 13 13 13 14 14 13 9 10 12 6 9 3 9 8 10 10 12 13 13 10 11 13 13 12 10 13 11 5 9 7
17 16 16 16 16 18 20 19 18 18 17 15 14 14 14 13 13 14 13 13 14 13 10 7 8 9 8 16 11 5 8 10 12 13 12 8 11 6 5 9 10 6 10 8 5 7 13
19 17 16 16 17 17 19 21 20 19 17 15 15 14 14 14 14 14 14 14 12 11 8 6 7 10 8 8 17 18 10 10 10 11 12 8 7 9 10 14 3 11 9 6 8 11 9
21 20 18 17 18 17 17 21 21 19 17 16 15 14 13 13 13 14 12 12 8 9 8 7 6 6 9 1 11 14 11 11 8 8 9 5 6 11 12 10 5 5 9 13 9 10 9
23 20 21 18 17 17 15 18 22 20 18 16 15 14 11 11 12 12 11 8 4 7 7 9 10 7 10 10 9 8 4 5 5 8 7 8 6 8 8 7 2 7 10 12 11 14 12
24 24 21 20 18 14 13 13 20 20 20 17 16 13 11 9 9 8 7 5 4 5 10 10 2 7 2 2 8 10 9 9 8 10 12 13 8 11 3 4 12 8 12 11 10 7 11
25 25 25 23 20 19 15 15 15 21 20 18 16 12 10 7 5 5 7 6 7 8 8 20 19 14 16 10 9 14 10 7 12 9 14 9 8 4 7 12 8 10 13 5 7 5 6
26 26 25 25 24 21 19 17 15 19 19 18 16 12 7 4 4 4 11 14 14 13 6 12 18 15 15 15 16 13 12 13 9 9 11 8 8 0 9 8 12 14 5 6 11 7 7
28 27 25 25 25 24 22 18 16 16 20 19 16 12 8 9 2 8 8 13 19 8 5 9 13 10 15 9 13 16 15 15 8 13 3 4 11 9 8 12 14 8 12 9 13 8 8
31 28 26 26 27 26 23 19 17 17 20 20 17 15 16 22 9 9 10 5 6 3 4 11 16 11 13 15 6 12 4 9 9 10 11 10 13 15 6 6 15 3 12 13 8 8 3
32 30 28 27 28 26 22 20 20 18 20 21 20 18 16 7 6 14 13 9 2 5 7 7 12 10 16 15 12 7 11 13 5 3 6 12 6 11 2 10 13 10 9 10 9 6 3
34 31 30 28 29 27 25 23 21 20 20 21 21 20 15 9 6 14 8 4 5 8 8 9 12 15 17 14 13 10 13 16 10 8 10 11 19 12 13 12 7 9 9 2 8 6 5
34 31 29 28 30 30 28 24 21 20 21 21 22 19 12 14 16 10 6 6 11 12 21 2 12 15 18 15 13 12 13 15 17 16 7 9 3 6 11 11 6 18 10 2 1 2 11
35 32 29 23 28 30 29 24 23 20 21 21 21 7 8 9 20 8 8 12 12 12 20 7 12 15 16 17 7 13 14 16 17 17 8 3 7 13 9 3 3 7 2 4 9 6 3
36 35 34 22 21 27 27 25 24 21 22 25 8 8 12 16 15 7 9 19 18 22 13 14 13 12 16 16 12 9 13 14 17 15 13 5 7 18 12 5 5 5 7 3 2 2 5
33 35 31 29 22 24 28 26 25 23 25 31 8 6 6 20 11 8 13 18 22 21 14 7 14 13 16 12 13 12 9 7 7 8 4 11 17 10 6 8 8 5 6 5 6 4 1
32 34 29 29 30 23 28 29 28 24 30 20 6 8 14 15 11 10 14 22 22 20 10 10 14 16 13 12 13 13 15 14 11 7 9 10 4 3 9 3 5 7 10 11 3 5 2
35 28 28 29 30 23 28 31 29 29 35 7 7 8 13 16 13 13 18 26 25 22 15 15 11 14 10 12 7 10 6 6 7 5 1 1 3 5 10 6 8 8 11 10 6 3 4
29 27 28 27 29 25 26 31 31 32 37 9 7 9 5 11 12 20 23 21 24 22 17 14 15 13 9 11 9 8 7 3 3 3 4 4 4 9 7 10 4 13 11 10 10 3 4
26 25 28 29 26 33 29 32 32 33 38 9 5 10 10 12 17 19 20 20 24 23 18 16 15 17 11 9 13 8 9 7 4 3 3 2 8 11 14 16 2 10 9 7 11 11 11
25 25 26 27 27 28 34 33 30 30 35 11 9 9 12 8 19 22 22 27 26 24 18 18 13 14 14 10 10 11 12 8 7 7 7 5 5 4 8 10 10 12 14 13 14 13 13
24 24 26 24 27 33 32 32 27 18 24 8 10 10 6 12 23 20 21 22 25 18 18 18 18 15 16 6 13 11 7 1 7 10 9 7 3 2 2 6 7 5 10 16 15 14 10
23 22 24 25 25 26 28 31 32 23 28 6 11 8 6 15 19 24 25 25 23 23 11 12 14 15 10 14 14 12 11 8 7 4 7 5 5 2 1 2 1 7 4 5 5 7 9
23 19 19 23 25 24 26 25 25 21 21 12 6 4 3 7 18 25 28 23 21 17 15 10 7 10 14 11 4 4 2 3 2 3 3 3 4 2 3 4 7 10 1 2 2 5 11
17 20 19 18 19 22 21 23 24 23 16 16 12 4 4 9 17 29 23 20 14 8 1 6 10 6 5 3 2 4 4 6 7 6 1 2 3 3 3 2 4 2 5 3 2 2 8
18 18 17 17 20 22 22 20 23 22 21 13 9 9 4 6 13 20 20 15 10 12 5 11 6 3 3 2 2 2 4 3 5 6 4 2 0 4 3 1 6 6 5 1 2 3 4
16 17 16 19 22 21 22 20 21 22 23 11 13 11 5 5 14 21 14 12 10 14 6 11 6 3 3 2 3 2 2 3 2 6 7 6 6 3 2 2 5 6 5 2 4 5 8
16 16 18 20 21 21 20 22 23 22 20 15 7 11 11 8 4 9 13 14 8 5 7 9 6 10 5 4 1 3 2 2 2 2 6 3 4 3 7 3 5 3 4 5 6 4 5
Wind_Direction
287 295 304 302 256 241 244 246 253 261 267 269 276 286 293 300 308 309 311 312 306 305 303 313 324 324 305 245 260 132 131 150 178 199 223 240 242 243 245 247 229 235 267 231 65 84 127
287 283 286 288 294 247 239 242 247 254 262 266 273 284 288 296 301 300 302 303 301 301 300 309 315 316 253 263 235 118 103 157 181 201 224 242 238 241 283 279 240 204 270 102 133 128 93
272 275 274 276 277 284 245 240 246 250 255 261 270 280 289 295 299 294 293 297 298 297 293 304 310 289 262 246 314 142 150 183 205 213 230 247 269 294 264 298 290 296 242 131 230 165 110
264 265 273 276 269 275 262 243 246 246 252 257 267 279 287 296 300 299 291 287 290 284 278 292 291 278 264 270 238 257 212 230 214 219 261 320 323 297 301 318 230 256 232 182 193 218 133
258 258 265 268 274 261 274 250 243 243 246 251 261 271 281 293 301 298 289 280 272 267 265 259 257 223 267 239 232 233 228 245 175 224 234 285 265 245 245 250 213 213 239 206 191 224 141
254 255 256 261 270 252 268 261 243 239 240 245 255 265 274 290 298 289 276 267 242 261 233 230 259 283 253 238 210 229 171 212 192 194 198 226 220 229 226 210 184 201 216 231 210 202 201
249 250 251 254 258 258 262 276 247 235 236 238 248 257 268 285 289 271 263 235 219 200 234 231 228 244 233 243 178 232 176 203 228 194 220 196 213 216 170 199 211 239 226 226 222 160 210
250 247 245 247 254 254 260 263 271 234 230 228 239 247 260 276 263 247 263 250 332 16 294 225 245 260 278 283 252 227 177 202 217 235 52 263 220 286 201 243 243 231 245 275 103 177 247
252 246 241 239 241 251 251 256 258 247 224 222 229 232 237 234 172 207 232 245 280 358 267 257 209 228 247 226 249 203 194 219 114 51 322 294 349 272 283 242 223 236 250 154 250 169 231
250 247 244 236 235 239 245 244 249 251 223 216 220 211 191 150 192 230 230 239 251 276 276 208 194 224 239 229 229 249 190 239 109 204 200 323 279 225 255 249 232 276 334 234 256 192 230
244 247 241 241 234 232 234 240 237 248 224 212 210 199 182 183 333 227 37 185 129 210 272 180 185 187 208 213 224 209 232 257 236 188 181 206 270 269 202 289 300 137 266 279 262 244 136
243 240 242 239 231 224 226 228 231 239 222 207 201 190 180 227 255 262 331 316 170 233 239 156 148 178 219 208 231 201 184 234 48 217 238 129 282 291 65 233 266 162 230 252 270 263 111
253 237 236 235 232 223 224 226 220 229 218 204 196 182 174 212 231 227 245 238 212 228 240 184 186 192 215 206 222 208 194 204 221 195 204 217 223 153 188 220 201 227 245 221 15 350 261
247 248 233 232 225 219 219 218 216 219 209 201 190 175 216 232 264 292 230 211 229 203 241 94 187 196 209 211 210 207 223 207 216 233 194 219 333 190 200 255 128 296 250 353 182 184 277
243 240 229 229 230 216 211 215 212 209 200 190 159 197 226 219 245 275 220 212 209 242 198 201 193 206 208 223 207 202 230 208 211 225 251 326 139 333 342 285 276 348 300 357 217 197 326
242 235 225 219 232 223 206 210 210 202 190 166 181 201 230 203 195 243 221 224 224 239 291 170 207 214 214 213 183 213 206 223 224 214 129 155 23 265 242 248 238 259 342 300 227 283 267
237 224 220 215 234 231 215 209 207 197 177 174 200 206 212 179 164 219 219 217 235 229 241 260 222 210 231 194 200 221 219 196 202 171 236 167 194 195 157 210 249 171 243 240 291 261 10
233 228 217 214 212 229 220 211 202 187 172 174 206 206 148 152 181 212 220 216 229 237 199 240 257 234 214 237 192 227 235 182 188 220 197 234 320 260 226 66 341 319 285 217 168 275 177
233 221 215 213 209 216 221 213 200 186 176 172 190 185 159 166 199 202 213 222 228 232 212 211 237 247 199 235 208 220 206 26 77 182 280 100 218 268 286 195 212 244 252 253 274 72 251
218 217 216 214 210 212 224 215 196 188 183 202 182 179 180 213 217 199 201 213 219 233 240 204 224 229 220 223 195 208 192 121 124 92 49 333 249 262 240 257 341 200 242 240 225 150 242
212 213 216 207 203 208 222 212 201 189 184 202 218 203 178 191 207 202 202 213 212 215 222 238 210 216 206 211 195 219 212 118 143 126 161 232 245 260 270 279 288 301 294 243 243 228 230
211 212 211 208 210 201 209 202 185 184 184 213 211 199 166 186 193 210 213 212 207 206 198 230 214 196 199 194 199 197 213 161 180 166 196 193 249 285 291 293 289 273 275 275 273 276 256
210 204 204 210 206 193 201 190 181 184 180 206 230 269 176 190 183 202 216 207 217 204 200 219 210 198 217 151 73 63 68 81 200 166 192 176 235 142 250 346 348 322 244 249 261 264 263
199 196 205 196 187 193 188 182 191 191 201 223 224 239 215 183 189 200 204 211 208 214 182 191 216 228 109 113 90 79 77 81 94 64 194 181 216 84 151 311 256 239 27 354 344 316 309
182 188 185 179 188 188 185 180 179 185 220 223 214 283 202 211 187 192 204 204 202 215 184 157 28 110 148 111 108 106 90 56 190 143 160 207 136 135 148 216 284 307 141 22 46 46 41
184 183 183 182 183 179 172 176 181 185 229 229 239 312 265 195 206 193 193 196 201 127 52 116 88 126 129 105 115 178 174 218 168 140 146 116 161 165 175 224 218 93 97 53 358 165 47
184 187 186 184 179 170 174 176 187 193 228 224 232 211 249 213 198 194 198 197 149 132 202 132 136 111 345 94 135 168 203 230 147 163 167 100 256 177 144 234 293 83 105 82 223 73 64
186 191 190 187 182 176 188 175 184 204 225 197 221 240 264 270 174 193 196 181 172 159 180 133 138 160 142 130 145 160 112 210 206 183 159 168 157 185 120 149 267 131 125 135 56 10 13
192 187 174 179 180 183 193 184 185 203 198 187 242 238 240 241 88 86 61 42 36 52 133 170 158 158 162 151 140 77 112 20 46 192 181 188 182 178 174 198 141 119 46 55 44 15 3